Regional Weather Roundup
Issued by NWS Albany, NY

Home | Current Version | Previous Version | Text Only | Print | Product List | Glossary On
Versions: 1 2 3 4 5 6 7 8 9 10 11 12 13 14 15 16 17 18 19 20 21 22 23 24 25 26 27
000
ASUS41 KALY 161410
RWRALY

NEW YORK STATE HOURLY WEATHER ROUNDUP
NATIONAL WEATHER SERVICE ALBANY NY
900 AM EST TUE JAN 16 2018

NOTE: "FAIR" INDICATES FEW OR NO CLOUDS BELOW 12,000 FEET WITH NO
SIGNIFICANT WEATHER AND/OR NO OBSTRUCTIONS TO VISIBILITY.

NYZ032-033-038>043-046>054-057>066-NYZ062>081-082-084-161500-
EAST


CITY           SKY/WX    TMP DP  RH WIND       PRES   REMARKS
ALBANY         LGT SNOW  21  16  81 S5        30.47S WCI  15
GLENS FALLS    LGT SNOW  14  11  87 CALM      30.47F FOG
POUGHKEEPSIE   LGT SNOW  24  19  81 SE5       30.49S WCI  18
NEWBURGH       LGT SNOW  23  21  93 E6        30.48S FOG     WCI  16
MONTGOMERY     LGT SNOW  23  19  85 N3        30.47R FOG
WHITE PLAINS   PTSUNNY   23  19  85 SE5       30.48F WCI  17
ISLIP          CLOUDY    29  22  75 N7        30.54R WCI  22
NEW YORK CITY  CLOUDY    27  22  81 E7        30.51S WCI  19
CENTRAL PARK   CLOUDY    29  24  82 VRB3      30.52S
$$

NYZ005>009-017-018-044>046-055-056-161500-
CENTRAL


CITY           SKY/WX    TMP DP  RH WIND       PRES   REMARKS
FULTON         LGT SNOW  20  17  88 SE3       30.39R FOG
SYRACUSE       FLURRIES  17  16  95 E5        30.40R WCI  10
ROME           LGT SNOW  18  15  88 SE6       30.43R FOG     WCI  10
ELMIRA         FAIR      18  18 100 CALM      30.38R FOG
BINGHAMTON     LGT SNOW  22  20  92 SW5       30.33R VSB 1   WCI  16
MONTICELLO     LGT SNOW  20  18  92 S3        30.41R FOG
$$

NYZ026>034-041>043-087-161500-
NORTH


CITY           SKY/WX    TMP DP  RH WIND       PRES   REMARKS
WATERTOWN      LGT SNOW  27  11  51 NE3       30.39R
FORT DRUM      NOT AVBL
OGDENSBURG     PTSUNNY    8   4  85 NE3       30.42S
MASSENA        LGT SNOW   6   2  83 E6        30.45S FOG     WCI  -4
SARANAC LAKE   CLOUDY     9   6  88 CALM      30.29R FOG
PLATTSBURGH    CLOUDY     4   0  83 CALM      30.44S
$$

NYZ001>004-010>016-019>021-085-161500-
WEST


CITY           SKY/WX    TMP DP  RH WIND       PRES   REMARKS
NIAGARA FALLS  FAIR      23  20  88 SW6       30.35R WCI  16
BUFFALO        FLURRIES  24  21  88 SW9       30.35R WCI  14
DUNKIRK        CLOUDY    22  17  81 S7        30.38R WCI  13
JAMESTOWN      FOG       18  17  96 CALM      30.31R VSB 1
WELLSVILLE     CLOUDY    21  17  84 SW5       30.29R WCI  15
ROCHESTER      LGT SNOW  24  20  84 SW8       30.38R FOG     WCI  15
PENN YAN       FAIR      22  16  78 SW10      30.36R WCI  11
$$

             KEY
       WCI = WIND CHILL INDEX
       VSB = VISIBILITY
       HX  = HEAT INDEX
$$




USA.gov is the U.S. government's official web portal to all federal, state and local government web resources and services.